Code,Year,DOY,HHMM,TIMESTAMP,wd,ws_min,ws,ws_max,Ta,RH,P,Rain,Hail,K_down_SPN1,K_diff_SPN1,L_down,K_down_Knz,RH_QC,P_QC,Ta_QC,ws_QC,ws_max_QC,ws_min_QC,wd_QC,K_down_KnZ
12578,2020,336,0000,2020-12-01 00:00:00,179,2.826,3.221,3.642,3.1,86.6,1001,0.038,0,4.061,2.703,320.6,-0.403,0,0,0,0,0,0,0,
12579,2020,336,0010,2020-12-01 00:10:00,181,3.05,3.462,3.883,3.1,86.6,1001,0.042,0,4.188,2.693,320.59,-0.419,0,0,0,0,0,0,0,
12580,2020,336,0020,2020-12-01 00:20:00,192.2,2.478,2.842,3.2,3.1,86.5,1001,0.057,0,4.213,2.72,320.15,-0.388,0,0,0,0,0,0,0,
12581,2020,336,0030,2020-12-01 00:30:00,185.2,2.597,3.012,3.398,3.062,86.4,1001,0.012,0,4.346,2.903,320.12,-0.424,0,0,0,0,0,0,0,
12582,2020,336,0040,2020-12-01 00:40:00,185.1,2.69,3.048,3.416,3.03,86.5,1001,0.002,0,4.165,2.742,320.12,-0.424,0,0,0,0,0,0,0,
12583,2020,336,0050,2020-12-01 00:50:00,181.9,2.614,3.06,3.496,3.077,86.6,1001,0.002,0,4.015,2.589,320.14,-0.399,0,0,0,0,0,0,0,
12584,2020,336,0100,2020-12-01 01:00:00,185.3,2.725,3.087,3.455,3.1,86.6,1001,0,0,4.217,2.795,319.97,-0.568,0,0,0,0,0,0,0,
12585,2020,336,0110,2020-12-01 01:10:00,184.3,2.722,3.067,3.424,3.1,86.6,1001,0,0,4.116,2.574,320.05,-0.492,0,0,0,0,0,0,0,
12586,2020,336,0120,2020-12-01 01:20:00,180.4,2.79,3.143,3.491,3.1,86.8,1001,0,0,3.997,2.527,320.11,-0.425,0,0,0,0,0,0,0,
12587,2020,336,0130,2020-12-01 01:30:00,176.8,3.112,3.422,3.728,3.1,86.9,1001,0,0,4.083,2.64,320.17,-0.374,0,0,0,0,0,0,0,
12588,2020,336,0140,2020-12-01 01:40:00,179.5,2.771,3.102,3.417,3.1,87.1,1001,0,0,4.241,2.647,320.05,-0.485,0,0,0,0,0,0,0,
12589,2020,336,0150,2020-12-01 01:50:00,183.3,1.781,2.071,2.356,3.1,87.2,1001,0,0,4.233,2.75,320.1,-0.438,0,0,0,0,0,0,0,
12590,2020,336,0200,2020-12-01 02:00:00,182,2.758,3.101,3.423,3.1,87.2,1001,0,0,4.031,2.557,320.16,-0.377,0,0,0,0,0,0,0,
12591,2020,336,0210,2020-12-01 02:10:00,179.8,2.818,3.189,3.542,3.1,87.2,1001,0,0,3.957,2.45,320.66,-0.351,0,0,0,0,0,0,0,
12592,2020,336,0220,2020-12-01 02:20:00,175.7,2.798,3.151,3.493,3.1,87.2,1001,0.028,0,4.135,2.621,320.64,-0.363,0,0,0,0,0,0,0,
12593,2020,336,0230,2020-12-01 02:30:00,178.5,2.898,3.241,3.59,3.1,87.2,1001,0,0,4.087,2.626,320.63,-0.382,0,0,0,0,0,0,0,
12594,2020,336,0240,2020-12-01 02:40:00,171.6,2.543,2.852,3.145,3.147,87.2,1001,0,0,4.064,2.667,320.67,-0.333,0,0,0,0,0,0,0,
12595,2020,336,0250,2020-12-01 02:50:00,172.8,2.623,2.877,3.139,3.113,87.4,1002,0,0,4.15,2.725,320.71,-0.294,0,0,0,0,0,0,0,
12596,2020,336,0300,2020-12-01 03:00:00,171.7,3.162,3.436,3.716,3.023,87.6,1002,0,0,4.225,2.762,320.22,-0.317,0,0,0,0,0,0,0,
12597,2020,336,0310,2020-12-01 03:10:00,171.5,2.679,2.947,3.222,3,87.6,1002,0.425,0,4.226,2.71,320.17,-0.367,0,0,0,0,0,0,0,
12598,2020,336,0320,2020-12-01 03:20:00,167.8,1.969,2.245,2.506,3,87.7,1002,1.252,0,4.227,2.74,320.26,-0.279,0,0,0,0,0,0,0,
12599,2020,336,0330,2020-12-01 03:30:00,160.3,2.228,2.432,2.642,2.923,87.8,1002,0.718,0,4.266,2.891,319.82,-0.255,0,0,0,0,0,0,0,
12600,2020,336,0340,2020-12-01 03:40:00,163.7,2.343,2.646,2.954,2.843,88,1002,0.293,0,4.184,2.65,319.84,-0.237,0,0,0,0,0,0,0,
12601,2020,336,0350,2020-12-01 03:50:00,165.7,2.335,2.632,2.898,2.8,88.2,1002,0.029,0,4.188,2.692,319.38,-0.226,0,0,0,0,0,0,0,
12602,2020,336,0400,2020-12-01 04:00:00,164.5,2.283,2.544,2.798,2.8,88.3,1002,0,0,4.212,2.819,319.4,-0.208,0,0,0,0,0,0,0,
12603,2020,336,0410,2020-12-01 04:10:00,160.8,2.089,2.343,2.595,2.8,88.4,1002,0,0,4.133,2.646,319.43,-0.174,0,0,0,0,0,0,0,
12604,2020,336,0420,2020-12-01 04:20:00,164.9,2.335,2.583,2.844,2.76,88.5,1002,0,0,4.276,2.777,319.42,-0.185,0,0,0,0,0,0,0,
12605,2020,336,0430,2020-12-01 04:30:00,161.1,2.153,2.439,2.727,2.713,88.6,1002,0,0,4.224,2.742,318.97,-0.168,0,0,0,0,0,0,0,
12606,2020,336,0440,2020-12-01 04:40:00,164.2,2.17,2.432,2.673,2.7,88.7,1002,0,0,4.268,2.743,318.98,-0.162,0,0,0,0,0,0,0,
12607,2020,336,0450,2020-12-01 04:50:00,144.6,2.083,2.321,2.548,2.7,88.8,1003,0,0,4.124,2.603,318.97,-0.164,0,0,0,0,0,0,0,
12608,2020,336,0500,2020-12-01 05:00:00,144.9,1.993,2.202,2.417,2.7,88.8,1003,0,0,4.198,2.681,318.97,-0.164,0,0,0,0,0,0,0,
12609,2020,336,0510,2020-12-01 05:10:00,139.1,2.502,2.779,3.033,2.648,88.6,1003,0,0,4.409,2.834,318.94,-0.194,0,0,0,0,0,0,0,
12610,2020,336,0520,2020-12-01 05:20:00,130.3,2.567,2.886,3.211,2.418,88.4,1003,0.01,0,4.697,3.205,317.95,-0.255,0,0,0,0,0,0,0,
12611,2020,336,0530,2020-12-01 05:30:00,137.3,3.034,3.339,3.638,2.254,88.4,1003,0,0,4.659,3.154,317.48,-0.267,0,0,0,0,0,0,0,
12612,2020,336,0540,2020-12-01 05:40:00,136.7,2.442,2.712,2.982,2.2,88.4,1003,0,0,4.515,3.045,317.04,-0.234,0,0,0,0,0,0,0,
12613,2020,336,0550,2020-12-01 05:50:00,131.8,2.622,2.842,3.053,2.104,88.3,1003,0,0,4.489,3.031,316.61,-0.202,0,0,0,0,0,0,0,
12614,2020,336,0600,2020-12-01 06:00:00,133.2,2.722,2.98,3.235,2.004,88.3,1003,0,0,4.515,2.959,316.14,-0.214,0,0,0,0,0,0,0,
12615,2020,336,0610,2020-12-01 06:10:00,131.3,2.893,3.112,3.322,2,88.3,1004,0,0,4.353,2.937,316.14,-0.208,0,0,0,0,0,0,0,
12616,2020,336,0620,2020-12-01 06:20:00,131.6,3.137,3.385,3.631,2,88.3,1004,0,0,4.28,2.85,315.66,-0.225,0,0,0,0,0,0,0,
12617,2020,336,0630,2020-12-01 06:30:00,128.7,2.542,2.78,3.019,2,88.3,1004,0,0,4.331,2.848,315.68,-0.205,0,0,0,0,0,0,0,
12618,2020,336,0640,2020-12-01 06:40:00,124.1,2.965,3.212,3.47,2,88.2,1004,0,0,4.245,2.833,315.66,-0.231,0,0,0,0,0,0,0,
12619,2020,336,0650,2020-12-01 06:50:00,132.6,2.928,3.213,3.483,1.944,88.2,1004,0.025,0,4.203,2.681,315.65,-0.236,0,0,0,0,0,0,0,
12620,2020,336,0700,2020-12-01 07:00:00,133.5,3.255,3.548,3.836,1.9,88,1004,0.213,0,4.323,2.799,315.64,-0.247,0,0,0,0,0,0,0,
12621,2020,336,0710,2020-12-01 07:10:00,133.8,3.322,3.611,3.9,1.9,87.9,1005,0.113,0,4.27,2.799,315.61,-0.281,0,0,0,0,0,0,0,
12622,2020,336,0720,2020-12-01 07:20:00,137.6,2.862,3.172,3.479,1.926,87.9,1005,0.002,0,4.24,2.794,315.12,-0.311,0,0,0,0,0,0,0,
12623,2020,336,0730,2020-12-01 07:30:00,131.7,2.511,2.762,3.017,1.904,87.8,1005,0,0,4.324,2.775,315.15,-0.273,0,0,0,0,0,0,0,
12624,2020,336,0740,2020-12-01 07:40:00,131,2.939,3.194,3.438,1.88,87.7,1005,0,0,4.447,2.895,315.14,-0.285,0,0,0,0,0,0,0,
12625,2020,336,0750,2020-12-01 07:50:00,132,3.036,3.306,3.568,1.846,87.7,1005,0,0,4.347,2.889,315.13,-0.3,0,0,0,0,0,0,0,
12626,2020,336,0800,2020-12-01 08:00:00,134,2.627,2.869,3.11,1.811,87.7,1005,0,0,4.504,2.858,314.55,-0.412,0,0,0,0,0,0,0,
12627,2020,336,0810,2020-12-01 08:10:00,136,3.07,3.35,3.627,1.8,87.6,1006,0,0,4.535,3.036,314.53,-0.434,0,0,0,0,0,0,0,
12628,2020,336,0820,2020-12-01 08:20:00,134.8,3.103,3.379,3.638,1.8,87.6,1006,0,0,5.019,3.585,314.55,-0.412,0,0,0,0,0,0,0,
12629,2020,336,0830,2020-12-01 08:30:00,135.9,2.567,2.835,3.086,1.8,87.6,1006,0,0,5.283,3.787,314.66,-0.305,0,0,0,0,0,0,0,
12630,2020,336,0840,2020-12-01 08:40:00,138.5,2.615,2.892,3.178,1.8,87.6,1006,0,0,5.869,4.277,314.68,-0.286,0,0,0,0,0,0,0,
12631,2020,336,0850,2020-12-01 08:50:00,136.4,2.464,2.772,3.081,1.8,87.5,1006,0,0,8.93,7.347,314.71,-0.252,0,0,0,0,0,0,0,
12632,2020,336,0900,2020-12-01 09:00:00,136,2.969,3.241,3.517,1.8,87.4,1007,0,0,12.33,10.72,314.75,-0.22,0,0,0,0,0,0,0,
12633,2020,336,0910,2020-12-01 09:10:00,132.1,2.716,3.015,3.31,1.8,87.4,1007,0,0,16.89,15.23,314.81,-0.16,0,0,0,0,0,0,0,
12634,2020,336,0920,2020-12-01 09:20:00,140.1,2.593,2.886,3.162,1.835,87.3,1007,0,0,22.13,20.72,315.33,-0.094,0,0,0,0,0,0,0,
12635,2020,336,0930,2020-12-01 09:30:00,136.4,2.607,2.89,3.153,1.88,87.2,1007,0,0,30.02,28.64,315.47,0.048,0,0,0,0,0,0,0,
12636,2020,336,0940,2020-12-01 09:40:00,131.6,2.593,2.881,3.172,1.9,87.1,1007,0,0,47.95,46.2,316.22,0.335,0,0,0,0,0,0,0,
12637,2020,336,0950,2020-12-01 09:50:00,138.1,2.682,2.971,3.252,1.905,87,1007,0,0,71.11,67.01,317,0.648,0,0,0,0,0,0,0,
12638,2020,336,1000,2020-12-01 10:00:00,136.5,2.179,2.463,2.743,2.016,87,1007,0,0,86.3,82,317.83,1.016,0,0,0,0,0,0,0,
12639,2020,336,1010,2020-12-01 10:10:00,133.8,2.328,2.594,2.861,2.114,86.9,1008,0,0,89,86.3,318.36,1.079,0,0,0,0,0,0,0,
12640,2020,336,1020,2020-12-01 10:20:00,141,2.167,2.458,2.759,2.16,86.7,1008,0,0,128.5,125.6,319.71,1.5,0,0,0,0,0,0,0,
12641,2020,336,1030,2020-12-01 10:30:00,135.3,2.499,2.778,3.041,2.234,86.3,1008,0,0,98.9,96.6,319.66,0.99,0,0,0,0,0,0,0,
12642,2020,336,1040,2020-12-01 10:40:00,131.9,2.009,2.243,2.474,2.304,86.1,1008,0,0,115.2,111.2,320.48,1.346,0,0,0,0,0,0,0,
12643,2020,336,1050,2020-12-01 10:50:00,128.2,1.816,2.078,2.339,2.4,85.8,1008,0,0,128.2,125.3,320.73,1.121,0,0,0,0,0,0,0,
12644,2020,336,1100,2020-12-01 11:00:00,130.4,2.098,2.325,2.561,2.4,85.6,1008,0,0,114.4,112.2,320.27,0.666,0,0,0,0,0,0,0,
12645,2020,336,1110,2020-12-01 11:10:00,141.6,1.116,1.303,1.502,2.498,85.5,1008,0,0,124.7,114.1,320.99,0.913,0,0,0,0,0,0,0,
12646,2020,336,1120,2020-12-01 11:20:00,144.3,1.917,2.103,2.289,2.6,85,1009,0,0,157.5,139.2,322.31,1.3,0,0,0,0,0,0,0,
12647,2020,336,1130,2020-12-01 11:30:00,136.2,1.765,1.956,2.148,2.757,84.4,1009,0,0,266.8,185.4,326.1,2.745,0,0,0,0,0,0,0,
12648,2020,336,1140,2020-12-01 11:40:00,124.9,1.771,1.927,2.081,3.004,83,1009,0,0,201.3,169.5,327.95,2.231,0,0,0,0,0,0,0,
12649,2020,336,1150,2020-12-01 11:50:00,121.1,1.376,1.527,1.681,3.03,82,1009,0,0,124.3,121.4,326.29,1.044,0,0,0,0,0,0,0,
12650,2020,336,1200,2020-12-01 12:00:00,114.4,1.673,1.829,1.979,3.15,82.1,1009,0,0,117.6,116.1,325.8,1.03,0,0,0,0,0,0,0,
12651,2020,336,1210,2020-12-01 12:10:00,115.8,1.435,1.562,1.7,3.064,81.9,1009,0,0,165.1,149.7,326.11,1.814,0,0,0,0,0,0,0,
12652,2020,336,1220,2020-12-01 12:20:00,101.9,1.045,1.169,1.302,3.358,81.4,1009,0,0,160.8,140.8,328.26,1.601,0,0,0,0,0,0,0,
12653,2020,336,1230,2020-12-01 12:30:00,115.5,1.265,1.389,1.512,3.376,80.8,1010,0,0,107.3,105.8,327.45,0.786,0,0,0,0,0,0,0,
12654,2020,336,1240,2020-12-01 12:40:00,110.2,1.344,1.467,1.595,3.371,81.2,1010,0,0,102.9,100.5,326.54,0.826,0,0,0,0,0,0,0,
12655,2020,336,1250,2020-12-01 12:50:00,97.9,1.391,1.512,1.627,3.374,81.2,1010,0,0,86,81.4,325.77,0.529,0,0,0,0,0,0,0,
12656,2020,336,1300,2020-12-01 13:00:00,91.1,1.961,2.085,2.215,3.391,81.5,1010,0,0,125,103.6,326.29,1.05,0,0,0,0,0,0,0,
12657,2020,336,1310,2020-12-01 13:10:00,107.9,1.889,2.056,2.222,3.537,81.2,1010,0,0,127.8,93.2,327.36,0.698,0,0,0,0,0,0,0,
12658,2020,336,1320,2020-12-01 13:20:00,98.4,1.473,1.619,1.775,3.733,81.2,1010,0,0,118.1,93.4,328.64,0.556,0,0,0,0,0,0,0,
12659,2020,336,1330,2020-12-01 13:30:00,103.4,1.622,1.766,1.899,3.6,78.98,1010,0,0,100.9,77.03,327.42,-0.192,0,0,0,0,0,0,0,
12660,2020,336,1340,2020-12-01 13:40:00,111.3,1.68,1.817,1.951,3.713,79.36,1010,0,0,102.3,78.04,326.71,-0.901,0,0,0,0,0,0,0,
12661,2020,336,1350,2020-12-01 13:50:00,102.5,1.384,1.53,1.681,3.863,80.1,1010,0,0,126.6,79.63,327.28,-1.759,0,0,0,0,0,0,0,
12662,2020,336,1400,2020-12-01 14:00:00,103,1.735,1.875,2.021,3.87,79.35,1010,0,0,110.1,79.37,326.99,-3,0,0,0,0,0,0,0,
12663,2020,336,1410,2020-12-01 14:10:00,95.7,1.794,1.912,2.035,3.89,79.77,1011,0,0,90.3,69.1,323.45,-5.586,0,0,0,0,0,0,0,
12664,2020,336,1420,2020-12-01 14:20:00,100.2,1.182,1.312,1.439,3.967,79.94,1011,0,0,85.6,62.71,320.88,-8.64,0,0,0,0,0,0,0,
12665,2020,336,1430,2020-12-01 14:30:00,85.7,1.735,1.907,2.077,4.09,80.4,1011,0,0,75.81,58.15,316.55,-12.97,0,0,0,0,0,0,0,
12666,2020,336,1440,2020-12-01 14:40:00,71.46,1.915,2.098,2.274,4.05,81,1011,0,0,60.37,47.45,309.11,-19.93,0,0,0,0,0,0,0,
12667,2020,336,1450,2020-12-01 14:50:00,78.2,1.859,2.036,2.208,4.003,80.9,1011,0,0,44.06,36.46,303.33,-24.76,0,0,0,0,0,0,0,
12668,2020,336,1500,2020-12-01 15:00:00,95.7,2.05,2.177,2.312,3.74,81.3,1011,0,0,34.1,28.27,297.33,-29.81,0,0,0,0,0,0,0,
12669,2020,336,1510,2020-12-01 15:10:00,97.6,2.189,2.338,2.487,3.567,82,1011,0,0,25.82,22.55,282.29,-43.42,0,0,0,0,0,0,0,
12670,2020,336,1520,2020-12-01 15:20:00,92.7,2.333,2.482,2.63,3.447,82.5,1011,0,0,17.7,16.12,268.34,-55.96,0,0,0,0,0,0,0,
12671,2020,336,1530,2020-12-01 15:30:00,90.9,2.487,2.634,2.796,3.338,83.4,1011,0,0,11.52,9.98,258.82,-64.06,0,0,0,0,0,0,0,
12672,2020,336,1540,2020-12-01 15:40:00,90.7,2.194,2.333,2.483,3.298,84,1011,0,0,8.79,7.155,250.91,-70.57,0,0,0,0,0,0,0,
12673,2020,336,1550,2020-12-01 15:50:00,86.7,2.503,2.649,2.797,3.197,84.4,1012,0,0,6.206,4.656,249.38,-71.63,0,0,0,0,0,0,0,
12674,2020,336,1600,2020-12-01 16:00:00,95,2.249,2.44,2.626,3.1,84.5,1012,0,0,5.191,3.651,258.95,-61.59,0,0,0,0,0,0,0,
12675,2020,336,1610,2020-12-01 16:10:00,88.6,1.956,2.117,2.292,3.1,84.9,1012,0,0,4.193,2.849,272.37,-47.7,0,0,0,0,0,0,0,
12676,2020,336,1620,2020-12-01 16:20:00,87.5,1.686,1.85,2.02,3.11,85.1,1012,0,0,3.519,2.066,302.96,-17.58,0,0,0,0,0,0,0,
12677,2020,336,1630,2020-12-01 16:30:00,80.9,1.813,1.996,2.176,3.15,84.9,1012,0,0,4.271,2.862,268.64,-51.9,0,0,0,0,0,0,0,
12678,2020,336,1640,2020-12-01 16:40:00,91.8,2.252,2.439,2.613,3.055,84.8,1012,0,0,4.89,3.342,256.73,-63.34,0,0,0,0,0,0,0,
12679,2020,336,1650,2020-12-01 16:50:00,90.5,2.319,2.502,2.692,2.857,85.1,1013,0,0,4.905,3.265,241.42,-77.72,0,0,0,0,0,0,0,
12680,2020,336,1700,2020-12-01 17:00:00,75.91,1.967,2.156,2.342,2.822,85.5,1013,0,0,4.879,3.37,234.91,-83.3,0,0,0,0,0,0,0,
12681,2020,336,1710,2020-12-01 17:10:00,77.47,1.616,1.805,1.993,2.9,85.2,1013,0,0,4.356,2.86,242.13,-76.08,0,0,0,0,0,0,0,
12682,2020,336,1720,2020-12-01 17:20:00,84.4,1.904,2.067,2.242,2.815,85.2,1013,0,0,4.625,3.079,232.64,-85.1,0,0,0,0,0,0,0,
12683,2020,336,1730,2020-12-01 17:30:00,84.8,2.126,2.327,2.533,2.73,85.4,1013,0,0,4.599,3.029,227.48,-89.8,0,0,0,0,0,0,0,
12684,2020,336,1740,2020-12-01 17:40:00,95.8,1.686,1.855,2.024,2.595,85.4,1013,0,0,4.662,3.143,225.85,-90.5,0,0,0,0,0,0,0,
12685,2020,336,1750,2020-12-01 17:50:00,99.4,2.203,2.377,2.542,2.5,85.6,1013,0,0,4.238,2.636,225.45,-90.9,0,0,0,0,0,0,0,
12686,2020,336,1800,2020-12-01 18:00:00,105.1,2.217,2.423,2.627,2.418,85.9,1013,0,0,4.385,2.884,225.09,-90.8,0,0,0,0,0,0,0,
12687,2020,336,1810,2020-12-01 18:10:00,108.5,1.868,2.031,2.202,2.368,86,1013,0,0,4.531,3.057,224.63,-90.8,0,0,0,0,0,0,0,
12688,2020,336,1820,2020-12-01 18:20:00,121.3,1.753,1.889,2.026,2.147,86.1,1013,0,0,4.968,3.376,224.3,-90.2,0,0,0,0,0,0,0,
12689,2020,336,1830,2020-12-01 18:30:00,114.3,1.662,1.799,1.942,2.038,86.7,1013,0,0,4.655,3.088,224.48,-89.1,0,0,0,0,0,0,0,
12690,2020,336,1840,2020-12-01 18:40:00,107.1,1.792,1.912,2.04,2,86.9,1014,0,0,4.286,2.78,224.88,-88.7,0,0,0,0,0,0,0,
12691,2020,336,1850,2020-12-01 18:50:00,82.1,1.605,1.748,1.877,2.052,86.9,1014,0,0,4.071,2.488,224.92,-88.2,0,0,0,0,0,0,0,
12692,2020,336,1900,2020-12-01 19:00:00,88.1,1.368,1.514,1.657,2.11,86.3,1014,0,0,4.399,2.842,225.82,-87.3,0,0,0,0,0,0,0,
12693,2020,336,1910,2020-12-01 19:10:00,94.8,1.715,1.835,1.961,2.018,86.2,1014,0,0,4.098,2.646,228.12,-85,0,0,0,0,0,0,0,
12694,2020,336,1920,2020-12-01 19:20:00,97.4,2.232,2.357,2.482,2,86.1,1014,0,0,3.332,1.86,252.05,-61.53,0,0,0,0,0,0,0,
12695,2020,336,1930,2020-12-01 19:30:00,85.1,1.864,1.978,2.093,1.998,85.8,1014,0,0,3.309,1.937,287.24,-26.8,0,0,0,0,0,0,0,
12696,2020,336,1940,2020-12-01 19:40:00,86.8,1.675,1.801,1.933,1.9,85.9,1014,0,0,3.86,2.348,300.79,-13.71,0,0,0,0,0,0,0,
12697,2020,336,1950,2020-12-01 19:50:00,80.3,1.556,1.682,1.813,1.922,86.3,1014,0,0,4.027,2.533,303.22,-11.28,0,0,0,0,0,0,0,
12698,2020,336,2000,2020-12-01 20:00:00,45.58,1.553,1.692,1.829,1.96,85.9,1014,0,0,3.928,2.506,304.97,-10,0,0,0,0,0,0,0,
12699,2020,336,2010,2020-12-01 20:10:00,50.83,1.468,1.618,1.777,2.02,86,1015,0,0,3.844,2.409,306.38,-9.05,0,0,0,0,0,0,0,
12700,2020,336,2020,2020-12-01 20:20:00,56.44,1.807,1.981,2.145,2.033,85.8,1015,0,0,3.759,2.291,306.23,-9.2,0,0,0,0,0,0,0,
12701,2020,336,2030,2020-12-01 20:30:00,71.44,1.43,1.583,1.737,2.128,85.8,1015,0,0,3.945,2.433,306.58,-9.31,0,0,0,0,0,0,0,
12702,2020,336,2040,2020-12-01 20:40:00,79.25,1.757,1.913,2.078,2.161,86,1015,0,0,3.944,2.507,306.4,-9.49,0,0,0,0,0,0,0,
12703,2020,336,2050,2020-12-01 20:50:00,79.19,2.117,2.288,2.464,2.1,86.1,1015,0,0,3.963,2.521,306.8,-9.55,0,0,0,0,0,0,0,
12704,2020,336,2100,2020-12-01 21:00:00,86.8,1.674,1.839,2.002,2.04,86.4,1015,0,0,4.227,2.767,306.97,-9.38,0,0,0,0,0,0,0,
12705,2020,336,2110,2020-12-01 21:10:00,77.67,2.014,2.199,2.382,2.079,86.3,1015,0,0,4.207,2.726,306.72,-9.17,0,0,0,0,0,0,0,
12706,2020,336,2120,2020-12-01 21:20:00,89.4,1.827,1.972,2.122,2,86.4,1015,0,0,4.321,2.846,307.06,-8.83,0,0,0,0,0,0,0,
12707,2020,336,2130,2020-12-01 21:30:00,91.8,2.211,2.379,2.553,2,86.5,1015,0,0,4.054,2.572,307.2,-8.69,0,0,0,0,0,0,0,
12708,2020,336,2140,2020-12-01 21:40:00,92.5,1.842,1.982,2.132,2,86.6,1015,0,0,4.219,2.705,307.37,-8.52,0,0,0,0,0,0,0,
12709,2020,336,2150,2020-12-01 21:50:00,92.9,1.712,1.837,1.97,2.021,86.8,1015,0,0,4.04,2.576,307.77,-8.12,0,0,0,0,0,0,0,
12710,2020,336,2200,2020-12-01 22:00:00,100.1,1.537,1.665,1.784,2.101,86.9,1015,0,0,3.886,2.451,308.26,-8.09,0,0,0,0,0,0,0,
12711,2020,336,2210,2020-12-01 22:10:00,116.8,1.765,1.916,2.067,2.2,86.8,1015,0,0,3.934,2.39,308.68,-8.14,0,0,0,0,0,0,0,
12712,2020,336,2220,2020-12-01 22:20:00,107.1,1.906,2.066,2.231,2.241,86.8,1015,0,0,3.871,2.427,308.78,-8.04,0,0,0,0,0,0,0,
12713,2020,336,2230,2020-12-01 22:30:00,111.9,2.08,2.256,2.441,2.3,86.6,1015,0,0,3.913,2.368,308.74,-8.54,0,0,0,0,0,0,0,
12714,2020,336,2240,2020-12-01 22:40:00,115.1,2.037,2.216,2.399,2.391,86.3,1015,0,0,3.986,2.604,309.19,-8.55,0,0,0,0,0,0,0,
12715,2020,336,2250,2020-12-01 22:50:00,116.6,2.309,2.488,2.666,2.441,86.1,1015,0,0,3.956,2.554,309.8,-8.41,0,0,0,0,0,0,0,
12716,2020,336,2300,2020-12-01 23:00:00,116.9,2.033,2.208,2.376,2.5,85.9,1015,0,0,4.011,2.474,309.76,-8.45,0,0,0,0,0,0,0,
12717,2020,336,2310,2020-12-01 23:10:00,111.9,1.752,1.914,2.093,2.581,85.7,1015,0,0,3.927,2.485,310,-8.67,0,0,0,0,0,0,0,
12718,2020,336,2320,2020-12-01 23:20:00,113.4,1.709,1.864,2.026,2.641,85.4,1015,0,0,3.864,2.475,310.26,-8.88,0,0,0,0,0,0,0,
12719,2020,336,2330,2020-12-01 23:30:00,119.5,2.153,2.321,2.474,2.7,85.1,1015,0,0,4.036,2.628,310.01,-9.13,0,0,0,0,0,0,0,
12720,2020,336,2340,2020-12-01 23:40:00,121.1,2.24,2.413,2.592,2.7,85.1,1015,0,0,4.082,2.64,309.81,-9.33,0,0,0,0,0,0,0,
12721,2020,336,2350,2020-12-01 23:50:00,118.7,1.914,2.062,2.193,2.67,85.3,1015,0,0,4.076,2.536,309.79,-9.35,0,0,0,0,0,0,0,
12722,2020,337,0000,2020-12-02 00:00:00,125,1.936,2.094,2.262,2.68,85.4,1015,0,0,4.196,2.621,309.94,-9.2,0,0,0,0,0,0,0,
12723,2020,337,0010,2020-12-02 00:10:00,123.6,1.767,1.93,2.095,2.7,85.3,1015,0,0,4.145,2.55,310.45,-9.16,0,0,0,0,0,0,0,
12724,2020,337,0020,2020-12-02 00:20:00,126.4,2.058,2.225,2.388,2.77,85.1,1015,0,0,4.012,2.509,310.23,-9.38,0,0,0,0,0,0,0,
12725,2020,337,0030,2020-12-02 00:30:00,131.3,2.058,2.241,2.413,2.8,85.1,1015,0,0,3.996,2.478,309.92,-9.69,0,0,0,0,0,0,0,
12726,2020,337,0040,2020-12-02 00:40:00,130.5,1.974,2.151,2.317,2.8,85.1,1015,0,0,3.969,2.506,310.16,-9.91,0,0,0,0,0,0,0,
12727,2020,337,0050,2020-12-02 00:50:00,142.4,1.469,1.683,1.905,2.8,85,1015,0,0,4.139,2.524,309.99,-10.08,0,0,0,0,0,0,0,
12728,2020,337,0100,2020-12-02 01:00:00,134.5,2.212,2.414,2.625,2.82,84.8,1015,0,0,4.024,2.472,310.07,-10,0,0,0,0,0,0,0,
12729,2020,337,0110,2020-12-02 01:10:00,140.9,2.345,2.589,2.822,2.9,84.3,1015,0,0,3.919,2.456,310.5,-10.04,0,0,0,0,0,0,0,
12730,2020,337,0120,2020-12-02 01:20:00,138.7,2.063,2.307,2.544,2.95,83.8,1015,0,0,3.997,2.51,310.11,-10.43,0,0,0,0,0,0,0,
12731,2020,337,0130,2020-12-02 01:30:00,136.4,2.442,2.648,2.859,2.901,83.9,1015,0,0,4.16,2.682,310.2,-10.34,0,0,0,0,0,0,0,
12732,2020,337,0140,2020-12-02 01:40:00,144.1,2.109,2.344,2.583,2.9,84,1015,0,0,4.077,2.731,310.09,-10.45,0,0,0,0,0,0,0,
12733,2020,337,0150,2020-12-02 01:50:00,134.7,2.403,2.648,2.894,2.9,84.1,1015,0,0,4.267,2.8,310.08,-10.46,0,0,0,0,0,0,0,
12734,2020,337,0200,2020-12-02 02:00:00,146.3,1.933,2.152,2.383,2.9,84.3,1015,0,0,4.16,2.593,310.04,-10.5,0,0,0,0,0,0,0,
12735,2020,337,0210,2020-12-02 02:10:00,132.7,2.187,2.462,2.734,2.9,84.3,1015,0,0,4.108,2.616,310.33,-10.21,0,0,0,0,0,0,0,
12736,2020,337,0220,2020-12-02 02:20:00,146.8,1.702,1.937,2.168,2.9,84.1,1015,0,0,4.143,2.666,310.25,-10.29,0,0,0,0,0,0,0,
12737,2020,337,0230,2020-12-02 02:30:00,142.1,1.8,2.037,2.261,2.9,83.8,1015,0,0,4.062,2.567,310.35,-10.19,0,0,0,0,0,0,0,
12738,2020,337,0240,2020-12-02 02:40:00,136.8,1.837,2.043,2.257,2.9,83.5,1015,0,0,4.184,2.82,310.41,-10.13,0,0,0,0,0,0,0,
12739,2020,337,0250,2020-12-02 02:50:00,141.3,1.677,1.907,2.12,2.9,83.1,1015,0,0,4.156,2.689,310.25,-10.29,0,0,0,0,0,0,0,
12740,2020,337,0300,2020-12-02 03:00:00,142.3,2.078,2.327,2.562,2.9,82.7,1015,0,0,4.131,2.656,309.93,-10.61,0,0,0,0,0,0,0,
12741,2020,337,0310,2020-12-02 03:10:00,142.5,1.945,2.225,2.498,2.821,82.5,1015,0,0,4.131,2.77,310.02,-10.52,0,0,0,0,0,0,0,
12742,2020,337,0320,2020-12-02 03:20:00,135,2.241,2.503,2.758,2.8,82.3,1015,0,0,4.203,2.754,309.86,-10.21,0,0,0,0,0,0,0,
12743,2020,337,0330,2020-12-02 03:30:00,135.8,2.329,2.582,2.818,2.751,82,1015,0,0,4.226,2.745,310.07,-10,0,0,0,0,0,0,0,
12744,2020,337,0340,2020-12-02 03:40:00,136.1,2.719,2.966,3.212,2.7,81.8,1015,0,0,4.231,2.702,310.06,-10.01,0,0,0,0,0,0,0,
12745,2020,337,0350,2020-12-02 03:50:00,134.3,2.349,2.597,2.839,2.7,81.7,1015,0,0,4.364,2.822,309.6,-10.01,0,0,0,0,0,0,0,
12746,2020,337,0400,2020-12-02 04:00:00,138.4,2.245,2.5,2.746,2.602,81.9,1015,0,0,4.389,2.861,309.68,-9.93,0,0,0,0,0,0,0,
12747,2020,337,0410,2020-12-02 04:10:00,133.7,2.742,2.976,3.216,2.561,82,1014,0,0,4.281,2.794,309.39,-9.75,0,0,0,0,0,0,0,
12748,2020,337,0420,2020-12-02 04:20:00,141.5,2.353,2.648,2.928,2.501,82.1,1014,0,0,4.352,2.808,309.2,-9.94,0,0,0,0,0,0,0,
12749,2020,337,0430,2020-12-02 04:30:00,137.4,2.255,2.534,2.816,2.492,82,1014,0,0,4.367,2.877,308.45,-10.22,0,0,0,0,0,0,0,
12750,2020,337,0440,2020-12-02 04:40:00,137.9,2.119,2.33,2.527,2.4,82.3,1014,0,0,4.328,2.837,308.61,-10.06,0,0,0,0,0,0,0,
12751,2020,337,0450,2020-12-02 04:50:00,138.2,2.304,2.499,2.706,2.4,82.5,1014,0,0,4.277,2.794,308.21,-10,0,0,0,0,0,0,0,
12752,2020,337,0500,2020-12-02 05:00:00,139.9,2.207,2.453,2.703,2.4,82.4,1014,0,0,4.333,2.759,307.86,-10.35,0,0,0,0,0,0,0,
12753,2020,337,0510,2020-12-02 05:10:00,140.3,2.276,2.553,2.824,2.4,82,1014,0,0,4.11,2.635,307.54,-10.67,0,0,0,0,0,0,0,
12754,2020,337,0520,2020-12-02 05:20:00,139.4,1.862,2.105,2.328,2.4,81.8,1014,0,0,4.316,2.793,307.24,-10.97,0,0,0,0,0,0,0,
12755,2020,337,0530,2020-12-02 05:30:00,139.8,2.456,2.74,3.009,2.4,81.6,1014,0,0,4.155,2.712,306.83,-11.38,0,0,0,0,0,0,0,
12756,2020,337,0540,2020-12-02 05:40:00,138.8,2.107,2.398,2.695,2.38,81.5,1014,0,0,4.045,2.699,306.48,-11.73,0,0,0,0,0,0,0,
12757,2020,337,0550,2020-12-02 05:50:00,146,2.079,2.36,2.629,2.34,81.4,1014,0,0,4.145,2.676,305.03,-12.71,0,0,0,0,0,0,0,
12758,2020,337,0600,2020-12-02 06:00:00,147.4,2.182,2.451,2.74,2.4,80.9,1014,0,0,4.098,2.637,304.03,-14.18,0,0,0,0,0,0,0,
12759,2020,337,0610,2020-12-02 06:10:00,140,1.953,2.253,2.539,2.4,80.3,1014,0,0,4.076,2.609,304,-14.21,0,0,0,0,0,0,0,
12760,2020,337,0620,2020-12-02 06:20:00,138.9,2.672,2.947,3.236,2.4,80.4,1014,0,0,4.273,2.852,302.5,-15.71,0,0,0,0,0,0,0,
12761,2020,337,0630,2020-12-02 06:30:00,146,2.283,2.577,2.852,2.4,80.1,1014,0,0,4.046,2.608,304.37,-13.84,0,0,0,0,0,0,0,
12762,2020,337,0640,2020-12-02 06:40:00,142.2,2.424,2.695,2.958,2.4,79.46,1014,0,0,4.135,2.678,304.3,-13.91,0,0,0,0,0,0,0,
12763,2020,337,0650,2020-12-02 06:50:00,133.5,3.417,3.725,4.015,2.392,78.91,1014,0,0,4.191,2.782,302.8,-15.41,0,0,0,0,0,0,0,
12764,2020,337,0700,2020-12-02 07:00:00,136.9,2.731,3.037,3.337,2.3,78.95,1014,0,0,4.361,2.782,301.66,-16.08,0,0,0,0,0,0,0,
12765,2020,337,0710,2020-12-02 07:10:00,143.6,2.692,3.003,3.31,2.3,78.53,1014,0,0,4.229,2.773,300.19,-17.55,0,0,0,0,0,0,0,
12766,2020,337,0720,2020-12-02 07:20:00,151.1,2.736,3.041,3.341,2.3,78.39,1014,0,0,4.27,2.704,298.03,-19.71,0,0,0,0,0,0,0,
12767,2020,337,0730,2020-12-02 07:30:00,145.1,2.475,2.778,3.082,2.397,77.63,1013,0,0,3.945,2.493,301.27,-16.94,0,0,0,0,0,0,0,
12768,2020,337,0740,2020-12-02 07:40:00,152.6,2.665,2.965,3.261,2.478,76.92,1013,0,0,3.896,2.428,303.13,-15.08,0,0,0,0,0,0,0,
12769,2020,337,0750,2020-12-02 07:50:00,157.9,2.693,2.983,3.258,2.615,76.01,1013,0,0,3.737,2.305,302.79,-16.35,0,0,0,0,0,0,0,